Terminal Aerodrome Forecast
Issued by NWS Wilmington, OH

Current Version | Previous Version | Text Only | Print | Product List | Glossary Off
Versions: 1 2 3 4 5 6 7 8 9 10 11 12 13 14 15 16 17 18 19 20 21 22 23 24

148
FTUS41 KILN 231736
TAFDAY
TAF
KDAY 231736Z 2318/2418 22010KT P6SM BKN025
     FM232200 20006KT P6SM VCSH BKN040
     FM240200 16006KT P6SM BKN050
     FM240700 18009KT P6SM BKN050
     FM241300 19012G22KT P6SM BKN050
     FM241500 19016G26KT P6SM BKN028=

USA.gov is the U.S. government's official web portal to all federal, state and local government web resources and services.